CAPE
2373 2798 3220 3502 3413 3288 2700 1456 1768 1934 2037 2480 2536 2447 2622 2643 2378 2596 2811 2725 2625 1836 1571 2051 1980 2545 2994 2437 2151 2518 2717 2626 2489 2364 2140 1976 1809 1747 1761 1668 1492 1323 1231 1195 1261 1344 1422 1338 1325 1313 1359 1159 911 523 532 502 389 287 173 395 431 341
2188 2786 2899 3378 3347 2930 2149 2068 1823 1849 2428 2490 2758 2093 1979 2016 2267 2376 1916 1584 1860 1954 2171 2162 2034 2292 2581 2394 2609 2735 2862 2748 2625 2435 2338 2146 1920 1935 1831 1868 1658 1456 1357 1319 1164 1202 1042 1046 1306 1386 1105 1392 511 514 525 412 325 174 302 343 364 448
2270 2727 2788 3144 3148 3307 2934 2170 2102 2140 2662 2654 1742 1874 1572 1551 1684 2322 2125 1999 1783 1839 2292 2191 1907 1783 1667 2125 2277 2833 2795 2924 2746 2528 2281 2270 2084 2023 1933 1868 1862 1670 1445 1375 1148 717 583 456 431 909 1206 660 617 674 467 412 251 217 250 247 291 731
2689 2855 2779 2737 2946 3376 3287 2584 2568 2215 2673 2234 2115 1861 1415 1388 1560 2130 1893 1447 1162 1587 1950 1975 1694 1726 1907 1685 1634 1851 1571 2408 2970 2704 2335 2128 2094 2029 1945 1885 1831 1778 1546 1245 811 519 318 90 70 1 104 402 705 720 560 364 280 297 210 578 369 936
3076 2937 2834 2834 2953 3138 3208 2933 2220 2283 2386 2271 1949 1512 1259 1156 1448 2055 1898 1723 1454 1504 1675 1568 1644 1597 1636 1171 1226 1377 1314 1437 2155 1979 1873 2140 1931 1996 1953 1760 1812 1808 1370 900 634 386 5 191 89 10 145 619 638 794 642 469 399 271 387 599 602 1130
2913 2718 3192 3096 2810 3021 2914 3001 2559 2130 2305 2220 1797 1467 1430 1300 1396 1605 1949 2156 2080 1946 1354 1372 1725 1992 1428 1406 1324 1450 1016 950 1571 1852 1811 2105 2043 1901 1764 1643 1647 1648 1418 941 547 365 0 54 327 473 491 549 651 831 852 689 678 442 555 589 833 1218
3201 2975 2707 2692 2492 2788 2387 2573 2344 2111 2141 2081 1730 1451 913 1490 1377 1240 1698 1874 2044 1748 1297 1536 1686 1236 919 1117 1398 1467 1354 704 1225 1739 1788 1893 1827 1905 1737 1572 1518 1520 1458 991 660 384 121 104 327 506 523 512 556 798 925 906 662 637 576 669 1036 1267
1946 2468 3005 2719 2406 1853 2112 1799 1792 1588 1878 2023 1712 1716 1483 1579 1366 1466 1716 2158 1850 1647 1342 1052 857 1125 1793 1032 1278 1264 1242 1164 825 1198 1363 1841 1996 2012 1766 1551 1508 1552 1460 1088 718 362 177 230 318 277 228 410 658 632 670 896 791 796 670 769 991 1264
2446 2595 2738 2657 2365 1655 1309 1259 1553 1521 1715 2116 2015 1861 1620 1614 1485 1328 1608 2162 2099 1701 1382 985 986 1177 1235 919 1294 1134 1122 1053 649 722 1324 1526 1797 2021 1820 1594 1552 1536 1371 837 402 366 204 262 223 236 161 343 493 695 726 774 770 824 785 874 904 1016
2338 2367 2650 3278 2320 2042 1458 1429 1556 1479 1887 2239 1902 1720 1543 1370 1308 1212 1576 1799 2074 1688 1044 986 1270 1617 1822 891 1261 1340 1301 906 673 1117 972 1458 1889 1819 1835 1559 1342 1320 1254 822 607 386 266 116 175 7 172 356 318 644 751 753 785 878 724 812 803 846
2345 2710 2751 3314 2614 2341 1592 1375 1312 1421 1272 1304 1420 1092 927 1123 1267 1339 1293 1501 1828 1775 1165 936 1460 1629 1781 1391 1321 1303 1506 1433 1230 1204 1272 1564 1592 1652 1697 1681 1158 1096 1264 1033 606 464 448 403 361 276 172 217 96 372 730 802 780 748 777 819 792 802
2907 2880 2643 2239 1984 1696 1783 1688 1093 873 802 842 923 801 767 845 1282 1036 1180 1446 1491 1490 1022 1135 1266 1021 2215 1707 1537 1637 1836 1789 1625 1416 1470 1374 1212 1032 1036 1410 1296 1081 1149 918 659 547 531 454 442 367 204 122 62 67 335 694 854 763 815 830 736 732
2226 2375 2221 1758 1742 1727 1987 1681 1346 1018 1004 1171 1030 1140 1195 1250 1498 1671 1535 1390 1387 1146 1548 1461 1454 1460 2036 1768 2042 1953 1795 1644 1596 1412 1497 1203 1004 1105 1331 1383 1210 1126 1023 880 789 569 536 451 419 402 461 396 147 105 131 359 580 785 824 895 783 704
2000 2101 2176 1945 1693 1850 2302 1852 1355 1088 1414 1142 1004 962 1163 1213 1296 1541 1384 1338 1038 911 1478 1701 1448 1363 1599 1675 2101 1620 1725 1855 1990 1783 1555 1067 1078 1256 1131 998 979 787 829 813 712 586 501 469 426 433 507 563 440 358 107 272 303 457 776 885 863 737
1960 2070 1946 1382 1345 1436 1550 1584 1460 1561 1213 982 1023 1205 1123 982 981 1418 1455 1355 1299 1169 1476 1335 1354 1232 1519 1819 1625 1573 1380 1645 1900 1890 1726 1136 1171 1148 790 668 751 579 624 581 572 492 450 433 441 451 357 421 434 348 336 347 426 292 347 650 867 715
1329 1261 1164 1058 1155 1200 1349 1533 1857 2176 1714 1471 1400 1172 1237 926 1002 992 1167 1482 1283 1333 1010 795 1041 1334 1221 1874 1526 1490 1027 1324 1543 1535 1399 1193 1133 802 642 479 477 505 490 481 476 368 383 384 378 393 404 387 180 316 326 322 338 400 258 286 328 544
1458 1093 1020 1094 950 791 1187 1464 2088 2285 1937 1615 1316 1234 1338 1143 917 857 1000 884 1029 1192 817 720 501 580 1147 1798 1546 1583 1521 1532 1297 1238 1226 1059 938 776 669 458 305 305 284 341 306 254 34 388 307 271 376 864 436 310 281 277 263 258 108 50 274 284
980 1044 1064 627 390 501 479 477 424 1232 1438 1304 1199 1056 1142 1103 945 830 635 516 766 812 549 492 484 723 986 1854 1559 1704 1767 1686 1284 1172 1180 1026 872 742 645 428 316 284 138 17 8 21 317 709 1023 964 1270 1255 1123 858 322 173 214 192 119 58 224 245
767 635 351 272 316 118 43 0 0 747 1076 1322 1481 1453 1119 682 631 688 552 731 846 899 865 353 373 624 947 1914 1608 1620 1566 1501 1276 1104 1097 1033 992 822 687 559 335 284 241 252 286 178 485 918 1101 952 902 975 1129 1169 743 469 476 206 160 8 85 174
691 511 392 436 348 83 0 0 627 851 1013 1172 1190 997 964 811 707 605 720 722 880 1073 848 973 914 998 1577 1730 1588 1617 1525 1382 1191 1138 1106 1087 1049 997 910 708 597 512 575 733 511 537 704 932 886 973 958 918 1272 1192 671 433 476 375 8 7 17 33
846 542 407 381 140 0 0 0 649 888 923 782 483 326 373 532 555 684 532 557 822 842 663 666 845 1382 1768 1744 1674 1688 1628 1492 1317 1191 1141 1204 1234 1261 1223 1017 922 786 677 820 928 874 1026 934 1021 1254 1112 1181 1302 887 439 195 228 169 19 0 0 0
1073 673 406 332 0 2 0 0 573 873 671 335 0 0 0 0 0 126 248 478 946 1287 1231 1018 1150 1682 2023 2043 1857 1564 1684 1435 1249 1115 1128 1134 1042 932 900 921 885 1000 1118 1014 1050 1015 1290 1107 893 977 1091 1252 1182 1288 1056 562 97 80 58 0 0 0
1024 147 374 223 0 20 1 0 386 445 0 0 0 0 0 0 0 0 0 0 116 0 518 660 784 1130 1477 1779 1795 1738 1577 1358 1257 1209 1114 1003 874 764 672 647 746 658 772 745 960 902 709 880 926 955 1066 690 806 567 426 453 176 14 39 0 0 0
717 32 423 94 38 27 7 0 263 0 0 0 0 0 0 0 0 0 0 0 0 0 0 0 39 659 960 1304 1655 1695 1557 1440 1338 1255 1105 924 799 671 527 476 785 664 640 548 595 466 540 796 825 894 466 573 818 583 24 29 0 0 0 0 1 0
539 14 419 318 0 0 0 0 0 0 0 0 0 0 0 0 0 47 0 0 0 0 0 0 0 0 0 695 1223 1420 1476 1508 1466 1319 1029 818 670 488 400 346 427 585 388 411 460 915 782 766 704 654 502 554 423 477 258 554 15 0 0 2 0 4
57 1 160 401 0 0 0 0 0 0 0 0 0 0 0 0 0 0 0 0 0 0 0 0 0 0 0 415 1005 1211 1203 1379 1500 1352 1128 913 618 476 482 500 548 713 515 879 918 856 767 685 641 793 819 474 300 68 495 622 64 1 0 191 0 0
5 2 303 225 73 0 0 0 0 0 0 0 0 0 0 0 0 0 0 0 0 0 0 0 0 0 0 0 0 128 223 522 1068 1348 1061 868 692 606 547 732 808 756 799 828 829 584 948 940 888 599 714 830 540 982 592 180 160 243 0 0 242 195
0 1 321 0 0 0 0 0 0 0 0 0 0 0 0 0 0 0 0 0 0 0 0 0 0 0 0 0 0 0 0 0 0 110 260 0 142 503 630 580 557 659 836 978 772 816 1055 981 1182 994 810 630 394 539 562 499 384 281 48 53 4 0
134 239 262 0 0 0 0 0 0 0 0 0 0 0 0 0 0 0 0 0 0 0 0 0 0 0 0 0 0 0 0 0 4 6 0 0 0 51 63 53 125 549 666 613 549 678 894 1070 867 563 566 605 616 407 463 374 247 282 324 194 77 0
8 186 163 63 0 0 0 0 0 0 0 0 0 0 0 0 0 0 0 0 0 0 0 0 0 0 0 0 0 0 0 0 0 0 0 4 9 4 0 0 0 201 420 268 222 159 170 249 462 546 522 229 79 0 0 0 0 0 183 127 70 0
435 6 1 0 0 0 0 0 0 0 0 0 2 1 0 0 0 0 0 0 0 0 0 0 0 0 0 0 0 0 0 0 0 0 0 0 0 0 0 3 0 0 0 0 0 0 0 0 22 32 0 0 0 0 0 0 0 0 0 0 0 0
570 294 211 5 0 0 0 2 0 0 0 5 14 10 0 0 0 0 0 0 0 0 0 0 0 0 0 0 0 0 0 0 0 0 0 0 0 0 0 0 0 0 0 0 0 0 0 0 0 0 0 0 0 0 0 0 0 0 0 0 0 0
569 414 358 5 10 44 20 12 7 0 8 15 25 18 0 0 0 0 0 0 0 0 0 0 0 0 0 0 0 0 0 0 0 0 0 0 0 0 0 0 0 0 0 0 0 0 0 0 0 0 0 0 0 0 0 0 0 0 0 0 0 0
508 452 344 12 50 28 11 8 2 0 10 38 35 15 0 0 0 0 0 0 0 0 0 0 0 0 0 0 0 0 0 0 0 0 0 0 0 0 0 0 0 0 0 0 0 0 0 0 0 0 0 0 0 0 0 0 0 0 0 0 0 0
476 473 265 3 0 0 0 0 0 0 36 4 23 5 0 0 0 0 0 0 0 0 0 0 0 0 0 0 0 0 0 0 0 0 0 0 0 0 0 0 0 0 0 0 0 0 0 0 0 0 0 0 0 0 0 0 0 0 0 0 0 0
348 216 0 0 0 1 4 10 0 13 45 23 9 2 0 0 0 0 0 0 0 0 0 0 0 0 0 0 0 0 0 0 0 0 0 0 0 0 0 0 0 0 0 0 0 0 0 0 0 0 0 0 0 0 0 0 0 0 0 0 0 0
294 38 60 18 3 0 0 2 24 6 49 54 20 2 0 0 0 0 0 0 0 0 0 0 0 0 0 0 0 0 0 0 0 0 0 0 0 0 0 0 0 0 0 0 0 0 0 0 0 0 0 0 0 0 0 0 0 0 0 0 0 0
Wind_Speed
25 27 27 27 29 32 39 44 38 35 30 30 32 34 30 27 24 24 26 29 32 31 28 28 25 25 30 30 28 26 26 28 28 28 26 23 23 21 19 17 17 18 18 17 15 15 17 18 19 20 20 23 26 24 23 23 23 23 22 25 28 28
27 28 28 27 28 31 33 37 33 29 28 30 33 38 31 25 21 23 33 32 25 25 23 26 25 28 26 25 25 27 26 26 28 28 26 24 23 21 19 18 17 17 17 16 14 18 19 21 21 19 20 22 24 24 26 25 23 22 22 24 27 28
28 28 30 28 26 26 30 28 28 26 28 31 35 32 28 27 23 20 33 28 25 30 26 28 26 29 27 22 20 22 24 25 24 26 26 25 24 22 20 19 17 17 17 16 18 19 19 20 20 21 22 22 23 23 26 24 24 24 22 23 26 26
26 26 28 25 24 26 26 27 26 26 29 31 30 28 27 27 24 23 33 28 27 29 31 28 27 29 29 22 21 23 24 18 22 25 25 24 23 22 21 19 19 19 18 19 19 19 19 nan nan nan 21 22 23 21 24 24 25 24 23 22 24 25
25 25 26 25 25 25 26 28 28 29 32 30 29 27 26 25 27 29 32 30 29 27 29 30 29 26 24 22 24 23 21 21 21 25 27 24 23 22 22 22 21 22 19 18 17 16 nan 19 nan nan 23 23 25 21 23 24 25 25 23 23 23 24
24 23 23 22 24 26 30 28 27 29 31 30 30 26 26 24 27 29 30 28 29 28 27 28 27 29 25 19 22 23 21 20 21 21 24 23 22 22 22 21 21 21 18 18 16 16 nan nan 19 20 20 20 23 19 23 24 25 26 25 25 24 24
23 23 19 17 21 26 26 24 24 26 29 28 26 23 25 24 25 29 26 26 27 27 25 22 27 25 28 24 20 21 17 17 18 17 19 21 18 18 19 19 19 18 19 18 16 16 16 16 18 19 19 19 21 20 24 24 25 27 27 27 26 26
28 18 14 12 21 28 26 21 15 20 27 26 26 24 23 23 24 25 23 23 27 25 23 22 24 19 23 24 21 17 17 13 15 13 14 17 17 17 17 17 17 18 19 18 17 16 17 17 18 19 18 18 20 22 24 26 26 27 28 28 29 29
20 12 9 13 22 24 24 23 19 21 22 23 24 25 24 23 23 24 23 22 23 24 21 21 22 23 22 21 19 18 15 12 16 14 15 16 17 17 18 18 17 17 18 19 18 18 20 21 21 21 22 24 24 23 25 26 27 30 29 29 30 31
20 15 12 15 19 22 25 28 25 24 17 18 24 23 24 23 22 26 26 20 19 21 22 20 19 25 24 19 18 18 17 16 16 15 14 16 15 17 17 17 18 17 18 20 21 21 25 25 25 nan 27 28 26 24 24 23 24 26 27 29 30 31
17 16 15 15 20 24 24 26 29 28 25 23 25 23 23 20 20 26 27 23 21 20 21 19 17 20 18 17 18 15 18 15 9 7 8 11 14 15 16 16 16 16 18 21 22 24 28 27 27 28 28 29 nan 27 27 25 24 24 25 27 29 32
17 16 18 17 17 23 25 25 26 25 24 22 22 24 21 17 14 22 25 23 23 21 19 17 16 16 14 14 16 13 15 11 7 8 8 9 10 13 15 16 18 20 22 21 22 23 23 25 26 28 29 30 nan nan 29 28 27 25 24 24 26 29
17 16 17 17 16 19 21 24 24 23 23 22 21 20 21 17 15 17 22 21 24 17 14 17 14 12 15 17 17 14 13 14 15 15 10 8 8 9 12 16 19 22 25 24 24 22 21 23 26 27 28 29 31 32 29 29 28 26 24 23 22 26
17 18 18 19 18 21 21 21 22 22 22 20 19 18 15 21 18 19 25 27 26 22 16 13 10 11 13 13 16 16 15 16 17 15 11 9 9 9 12 12 12 17 21 23 24 21 22 24 24 25 28 28 32 32 31 29 28 27 25 23 23 24
19 22 22 22 22 21 20 21 20 21 22 21 19 17 13 19 23 21 22 24 25 24 23 7 9 10 10 9 11 14 14 15 16 15 13 11 12 10 12 12 11 14 14 18 20 20 21 22 23 26 27 28 32 32 33 31 28 28 27 24 22 22
22 23 23 23 21 21 20 19 19 20 22 21 21 20 15 18 19 20 23 24 23 22 20 18 18 11 8 9 8 12 13 13 14 13 12 12 11 12 11 10 8 10 12 13 16 17 18 20 22 24 24 27 28 29 32 30 29 27 25 24 23 23
23 23 21 21 21 21 21 20 20 21 21 23 23 21 20 17 18 18 20 24 23 19 17 18 19 17 10 8 12 14 13 13 13 13 12 12 12 10 11 11 7 4 8 10 12 14 nan 16 19 22 24 25 25 25 26 26 24 24 23 nan 22 23
21 21 20 20 21 22 22 21 22 23 22 23 24 25 23 20 18 17 18 19 20 17 18 13 12 13 11 7 11 14 14 12 13 13 12 12 13 12 11 11 10 5 6 nan nan nan 13 15 17 20 22 22 22 23 23 23 22 22 23 nan 22 22
19 19 18 18 20 22 nan nan nan 24 24 24 23 23 25 23 21 18 16 16 15 16 15 13 10 9 8 8 10 11 14 13 13 13 13 13 13 14 13 10 11 9 7 7 10 11 13 14 15 15 16 17 18 17 18 21 20 20 20 nan nan 20
18 17 16 17 19 nan nan nan 25 23 25 23 22 23 22 25 27 22 18 15 16 18 17 13 12 10 10 10 10 11 13 14 14 15 15 15 14 15 15 14 11 11 11 10 9 10 12 13 11 11 10 10 12 13 15 16 17 17 nan nan nan nan
15 15 16 16 18 nan nan nan 22 24 24 20 22 21 22 22 24 24 24 18 14 14 21 19 15 14 14 13 13 13 13 13 16 16 16 15 15 17 16 15 13 11 12 12 10 10 10 13 12 7 7 9 11 12 13 14 16 17 nan nan nan nan
14 15 15 15 nan nan nan nan 23 23 23 21 nan nan nan nan nan 23 23 21 17 14 14 17 16 16 16 16 16 15 14 15 17 18 18 17 17 17 17 17 15 13 12 13 13 12 11 15 11 9 11 11 12 13 14 16 nan nan nan nan nan nan
16 16 14 12 nan nan nan nan 21 19 nan nan nan nan nan nan nan nan nan nan 19 nan 14 14 15 15 16 15 16 16 15 17 18 19 19 18 18 17 17 18 16 16 15 16 14 15 11 14 14 15 11 15 14 16 16 18 18 nan nan nan nan nan
16 nan 13 nan nan nan nan nan 20 nan nan nan nan nan nan nan nan nan nan nan nan nan nan nan nan 15 15 15 16 16 16 17 17 17 19 19 17 17 17 17 17 16 17 19 14 15 13 13 13 18 14 14 15 18 nan nan nan nan nan nan nan nan
16 nan 13 12 nan nan nan nan nan nan nan nan nan nan nan nan nan nan nan nan nan nan nan nan nan nan nan 15 15 16 17 17 17 18 19 19 17 16 16 16 18 18 17 18 17 19 18 13 11 17 16 17 18 19 18 18 nan nan nan nan nan nan
nan nan 16 15 nan nan nan nan nan nan nan nan nan nan nan nan nan nan nan nan nan nan nan nan nan nan nan 16 17 16 16 17 17 18 18 18 19 17 16 15 16 17 17 19 22 21 20 15 17 21 17 17 18 nan 20 20 nan nan nan 22 nan nan
nan nan 18 19 nan nan nan nan nan nan nan nan nan nan nan nan nan nan nan nan nan nan nan nan nan nan nan nan nan 18 19 19 19 19 19 19 17 16 16 16 17 17 18 21 20 21 20 20 23 18 18 21 23 23 23 22 21 20 nan nan 21 20
nan nan 20 nan nan nan nan nan nan nan nan nan nan nan nan nan nan nan nan nan nan nan nan nan nan nan nan nan nan nan nan nan nan 19 20 nan 19 18 21 19 16 18 20 21 21 23 22 21 23 20 21 23 24 22 24 24 24 22 nan nan nan nan
22 22 22 nan nan nan nan nan nan nan nan nan nan nan nan nan nan nan nan nan nan nan nan nan nan nan nan nan nan nan nan nan nan nan nan nan nan nan nan nan 20 22 23 23 23 23 24 23 25 23 23 25 25 25 24 24 23 24 22 21 nan nan
nan 24 26 nan nan nan nan nan nan nan nan nan nan nan nan nan nan nan nan nan nan nan nan nan nan nan nan nan nan nan nan nan nan nan nan nan nan nan nan nan nan 21 23 25 23 25 26 26 26 25 25 24 nan nan nan nan nan nan 23 21 nan nan
27 nan nan nan nan nan nan nan nan nan nan nan nan nan nan nan nan nan nan nan nan nan nan nan nan nan nan nan nan nan nan nan nan nan nan nan nan nan nan nan nan nan nan nan nan nan nan nan nan nan nan nan nan nan nan nan nan nan nan nan nan nan
27 29 31 nan nan nan nan nan nan nan nan nan nan nan nan nan nan nan nan nan nan nan nan nan nan nan nan nan nan nan nan nan nan nan nan nan nan nan nan nan nan nan nan nan nan nan nan nan nan nan nan nan nan nan nan nan nan nan nan nan nan nan
27 29 31 nan nan nan nan nan nan nan nan nan nan nan nan nan nan nan nan nan nan nan nan nan nan nan nan nan nan nan nan nan nan nan nan nan nan nan nan nan nan nan nan nan nan nan nan nan nan nan nan nan nan nan nan nan nan nan nan nan nan nan
30 29 30 nan nan nan nan nan nan nan nan nan nan nan nan nan nan nan nan nan nan nan nan nan nan nan nan nan nan nan nan nan nan nan nan nan nan nan nan nan nan nan nan nan nan nan nan nan nan nan nan nan nan nan nan nan nan nan nan nan nan nan
36 34 34 nan nan nan nan nan nan nan nan nan nan nan nan nan nan nan nan nan nan nan nan nan nan nan nan nan nan nan nan nan nan nan nan nan nan nan nan nan nan nan nan nan nan nan nan nan nan nan nan nan nan nan nan nan nan nan nan nan nan nan
35 32 nan nan nan nan nan nan nan nan nan nan nan nan nan nan nan nan nan nan nan nan nan nan nan nan nan nan nan nan nan nan nan nan nan nan nan nan nan nan nan nan nan nan nan nan nan nan nan nan nan nan nan nan nan nan nan nan nan nan nan nan
31 nan nan nan nan nan nan nan nan nan nan nan nan nan nan nan nan nan nan nan nan nan nan nan nan nan nan nan nan nan nan nan nan nan nan nan nan nan nan nan nan nan nan nan nan nan nan nan nan nan nan nan nan nan nan nan nan nan nan nan nan nan
Wind_Direction
257 262 266 272 277 280 280 278 284 296 299 294 292 288 285 280 276 276 280 272 267 274 281 281 285 283 297 294 292 291 290 286 283 278 272 264 262 260 258 256 253 253 254 252 242 235 235 233 234 236 233 234 236 232 233 243 241 240 237 237 240 238
260 265 269 276 280 280 281 282 292 295 293 293 287 274 259 253 250 273 266 265 278 279 286 285 284 283 278 280 287 290 285 281 277 276 271 264 262 257 256 252 252 252 251 250 246 234 231 227 229 232 235 240 238 234 237 248 246 242 238 234 238 241
269 274 277 275 274 273 281 288 283 285 283 278 269 271 282 287 290 273 271 276 283 277 279 283 286 281 276 273 275 275 278 278 272 273 270 269 264 260 254 254 254 253 245 241 236 233 231 233 231 226 229 235 241 238 243 245 243 242 241 236 235 247
279 277 273 271 267 272 279 280 280 278 277 274 278 282 282 278 272 274 283 290 287 283 279 279 285 290 290 283 274 268 252 256 278 274 271 262 268 267 267 264 260 256 248 238 234 231 229 nan nan nan 232 233 240 237 247 247 248 244 241 243 239 252
280 276 272 271 273 277 277 278 278 279 277 279 276 276 281 285 283 282 288 291 291 290 285 278 273 277 279 275 269 261 263 260 253 258 253 249 255 261 263 258 255 253 249 242 236 231 nan 227 nan nan 233 229 235 233 247 249 249 248 243 242 244 257
276 274 274 274 277 278 276 277 283 277 278 277 277 282 283 284 287 286 285 286 285 286 289 278 272 272 265 264 258 253 259 261 256 260 263 255 250 258 262 260 258 256 248 242 236 233 nan nan 230 233 235 238 241 236 246 245 245 248 245 242 245 260
263 253 253 263 268 265 264 270 266 270 275 273 275 278 278 282 287 288 289 292 286 280 281 282 271 264 276 270 264 265 265 271 266 266 268 263 254 258 261 261 260 258 250 246 237 232 234 234 238 239 237 237 242 238 244 245 244 246 246 243 244 259
246 243 263 277 268 253 263 271 279 283 281 284 287 293 291 294 293 296 294 289 286 285 292 294 283 276 268 266 270 269 275 278 274 276 272 265 257 254 257 255 256 253 252 246 241 235 238 242 245 244 239 241 248 252 248 246 245 246 246 244 242 249
260 254 255 263 270 272 280 290 291 300 296 301 301 304 304 303 302 296 288 286 294 296 296 295 291 288 278 265 267 276 279 284 286 288 286 278 267 261 257 253 250 247 249 248 245 240 241 248 251 247 241 243 247 256 260 252 247 246 243 241 244 245
257 264 267 275 287 286 290 296 298 302 297 309 311 309 301 306 305 294 289 289 294 298 300 302 296 295 290 285 278 281 280 284 286 290 291 287 273 263 259 249 243 241 244 246 248 251 247 246 245 nan 245 246 245 248 250 252 256 260 257 249 244 244
273 284 294 293 293 298 302 301 301 305 321 323 309 303 303 309 306 294 294 300 296 298 301 299 305 306 299 292 283 289 291 287 296 321 316 291 268 263 262 261 249 243 242 247 248 247 247 247 244 242 244 247 nan 247 249 250 253 253 254 252 247 245
276 283 289 289 284 288 300 303 305 307 308 306 299 303 305 305 306 291 299 304 301 296 291 297 307 305 299 289 286 286 282 284 304 332 328 301 277 265 264 259 253 250 250 252 250 249 251 254 251 249 249 251 nan nan 248 249 251 255 253 253 247 244
275 287 288 282 277 278 289 294 297 297 295 297 302 304 306 305 289 284 289 289 269 252 282 295 292 297 282 284 280 277 290 304 312 317 310 303 284 275 274 263 249 250 252 253 253 255 258 260 261 256 253 252 253 252 248 247 249 252 255 253 251 243
282 286 287 289 294 296 298 297 298 295 297 299 302 305 311 292 287 277 282 286 295 305 288 272 296 271 262 278 278 274 288 294 300 304 301 299 292 297 294 282 270 258 251 254 256 258 261 261 261 259 253 251 254 256 254 246 243 245 251 253 247 244
284 290 291 290 296 301 302 300 296 294 300 304 297 301 305 289 287 288 286 287 295 299 289 282 273 272 253 254 265 261 264 277 288 297 302 308 306 304 307 302 296 278 266 259 258 252 253 259 263 263 259 254 255 257 254 247 239 240 240 242 249 248
285 291 292 296 301 304 303 300 294 294 292 288 293 299 289 279 287 292 294 288 289 299 309 306 290 282 283 284 280 261 253 261 273 283 298 301 302 305 306 299 293 299 285 268 267 259 255 260 260 259 255 253 256 258 254 245 240 238 238 239 237 241
290 295 294 297 302 302 301 296 290 288 283 283 286 282 281 282 279 284 279 287 299 303 290 295 304 305 302 300 281 270 261 263 270 281 290 296 296 300 304 302 295 279 288 291 279 277 nan 267 266 264 258 253 252 253 248 241 239 241 240 nan 237 242
290 291 293 299 302 300 298 293 284 283 281 276 277 278 275 274 275 271 277 291 296 290 292 288 285 285 282 280 277 278 272 270 277 281 286 288 290 290 286 300 303 291 296 nan nan nan 280 268 269 269 260 252 248 248 242 238 240 241 240 nan 242 241
284 283 286 293 294 293 nan nan nan 279 273 269 266 272 284 280 272 276 285 287 288 288 288 293 288 292 299 283 278 273 276 274 271 277 283 285 285 282 284 285 299 298 289 291 299 293 283 273 273 275 261 243 241 246 238 232 238 244 241 nan nan 246
276 278 282 284 288 nan nan nan 281 278 273 270 272 276 279 286 291 297 296 295 306 302 298 300 305 309 298 291 275 265 271 274 275 281 284 285 285 284 284 282 287 294 293 284 279 278 275 268 265 283 282 242 232 241 237 231 236 244 nan nan nan nan
273 277 283 287 288 nan nan nan 279 283 286 285 283 280 276 277 281 290 296 300 294 292 299 303 308 306 301 293 277 269 270 271 270 271 273 278 279 278 279 284 289 283 289 285 275 270 271 270 277 276 271 252 232 235 243 242 245 252 nan nan nan nan
275 281 286 293 nan nan nan nan 293 294 292 292 nan nan nan nan nan 276 280 286 288 284 286 294 291 289 290 287 287 287 279 270 264 265 267 268 269 271 272 275 278 273 272 278 274 270 262 259 249 263 271 259 245 249 255 252 nan nan nan nan nan nan
289 290 289 291 nan nan nan nan 288 292 nan nan nan nan nan nan nan nan nan nan 279 nan 276 274 280 282 281 278 278 278 278 273 270 273 271 268 268 269 271 274 274 279 274 261 267 265 242 254 263 256 259 259 256 257 250 249 251 nan nan nan nan nan
298 nan 292 nan nan nan nan nan 282 nan nan nan nan nan nan nan nan nan nan nan nan nan nan nan nan 276 275 280 282 279 270 268 271 272 275 276 273 271 269 267 266 268 269 278 272 272 279 259 262 267 254 254 256 261 nan nan nan nan nan nan nan nan
302 nan 292 289 nan nan nan nan nan nan nan nan nan nan nan nan nan nan nan nan nan nan nan nan nan nan nan 274 277 277 278 274 273 270 271 274 276 272 269 267 268 270 271 269 271 263 261 261 256 251 255 251 246 251 258 255 nan nan nan nan nan nan
nan nan 284 286 nan nan nan nan nan nan nan nan nan nan nan nan nan nan nan nan nan nan nan nan nan nan nan 268 269 271 271 274 276 277 277 273 270 268 267 269 273 270 270 263 267 263 268 272 261 246 244 252 251 nan 255 254 nan nan nan 256 nan nan
nan nan 286 288 nan nan nan nan nan nan nan nan nan nan nan nan nan nan nan nan nan nan nan nan nan nan nan nan nan 268 272 273 275 277 281 282 281 282 279 267 263 265 270 270 271 267 274 268 260 251 249 247 244 245 254 256 256 258 nan nan 252 252
nan nan 293 nan nan nan nan nan nan nan nan nan nan nan nan nan nan nan nan nan nan nan nan nan nan nan nan nan nan nan nan nan nan 271 274 nan 277 274 270 266 263 260 262 263 267 270 266 262 263 252 244 250 246 243 247 250 257 261 nan nan nan nan
295 293 295 nan nan nan nan nan nan nan nan nan nan nan nan nan nan nan nan nan nan nan nan nan nan nan nan nan nan nan nan nan nan nan nan nan nan nan nan nan 265 259 259 255 255 259 259 256 259 260 257 251 254 251 251 251 254 256 259 256 nan nan
nan 295 299 nan nan nan nan nan nan nan nan nan nan nan nan nan nan nan nan nan nan nan nan nan nan nan nan nan nan nan nan nan nan nan nan nan nan nan nan nan nan 264 263 259 253 254 258 260 260 258 258 261 nan nan nan nan nan nan 254 256 nan nan
299 nan nan nan nan nan nan nan nan nan nan nan nan nan nan nan nan nan nan nan nan nan nan nan nan nan nan nan nan nan nan nan nan nan nan nan nan nan nan nan nan nan nan nan nan nan nan nan nan nan nan nan nan nan nan nan nan nan nan nan nan nan
293 291 295 nan nan nan nan nan nan nan nan nan nan nan nan nan nan nan nan nan nan nan nan nan nan nan nan nan nan nan nan nan nan nan nan nan nan nan nan nan nan nan nan nan nan nan nan nan nan nan nan nan nan nan nan nan nan nan nan nan nan nan
289 288 294 nan nan nan nan nan nan nan nan nan nan nan nan nan nan nan nan nan nan nan nan nan nan nan nan nan nan nan nan nan nan nan nan nan nan nan nan nan nan nan nan nan nan nan nan nan nan nan nan nan nan nan nan nan nan nan nan nan nan nan
290 285 285 nan nan nan nan nan nan nan nan nan nan nan nan nan nan nan nan nan nan nan nan nan nan nan nan nan nan nan nan nan nan nan nan nan nan nan nan nan nan nan nan nan nan nan nan nan nan nan nan nan nan nan nan nan nan nan nan nan nan nan
264 263 261 nan nan nan nan nan nan nan nan nan nan nan nan nan nan nan nan nan nan nan nan nan nan nan nan nan nan nan nan nan nan nan nan nan nan nan nan nan nan nan nan nan nan nan nan nan nan nan nan nan nan nan nan nan nan nan nan nan nan nan
285 287 nan nan nan nan nan nan nan nan nan nan nan nan nan nan nan nan nan nan nan nan nan nan nan nan nan nan nan nan nan nan nan nan nan nan nan nan nan nan nan nan nan nan nan nan nan nan nan nan nan nan nan nan nan nan nan nan nan nan nan nan
261 nan nan nan nan nan nan nan nan nan nan nan nan nan nan nan nan nan nan nan nan nan nan nan nan nan nan nan nan nan nan nan nan nan nan nan nan nan nan nan nan nan nan nan nan nan nan nan nan nan nan nan nan nan nan nan nan nan nan nan nan nan